Regional Weather Roundup
Issued by NWS

Home | Current Version | Previous Version | Graphics & Text | Print | Product List | Glossary On
Versions: 1 2 3 4 5 6 7 8 9 10 11 12 13 14 15 16 17 18 19 20 21 22 23 24 25 26 27 28 29 30 31 32 33 34 35 36 37 38 39 40 41 42 43 44 45 46 47 48 49 50
757
ASUS43 KLMK 291002
RWRKY
KENTUCKY REGIONAL WEATHER ROUNDUP
NATIONAL WEATHER SERVICE LOUISVILLE KY
600 AM EDT FRI APR 29 2016

NOTE "FAIR" INDICATES FEW OR NO CLOUDS BELOW 12,000 FEET
WITH NO SIGNIFICANT WEATHER AND/OR OBSTRUCTIONS TO VISIBILITY.

KYZ001>023-026-027-061>063-070>075-291100-
WESTERN AND SOUTH CENTRAL KENTUCKY

CITY           SKY/WX    TMP DP  RH WIND       PRES   REMARKS
PADUCAH        MOCLDY    55  50  83 NE6       30.02R
HENDERSON      MOCLDY    57  48  72 CALM      30.04R
OWENSBORO      CLOUDY    57  52  84 N3        30.05R
HOPKINSVILLE   NOT AVBL
BOWLING GREEN  CLOUDY    53  51  93 CALM      30.02R
GLASGOW        NOT AVBL
$$

KYZ024-025-028>034-038-045-046-053-291100-
NORTH CENTRAL KENTUCKY

CITY           SKY/WX    TMP DP  RH WIND       PRES   REMARKS
LOUISVILLE/SDF CLOUDY    58  51  78 NW6       30.02R
LOUISVILLE/LOU CLOUDY    57  50  77 CALM      30.03R
FORT KNOX      NOT AVBL
$$

KYZ035>037-039>044-047>052-055>060-089>105-291100-
NORTHEAST KENTUCKY

CITY           SKY/WX    TMP DP  RH WIND       PRES   REMARKS
LEXINGTON      CLEAR     52  48  86 SW5       30.01R
COVINGTON      CLOUDY    55  53  93 W7        30.00R FOG
FRANKFORT      CLOUDY    53  49  86 CALM      30.00R
$$

KYZ054-064>069-076>088-106>120-291100-
SOUTHEAST KENTUCKY

CITY           SKY/WX    TMP DP  RH WIND       PRES   REMARKS
JACKSON        CLEAR     58  49  72 CALM      30.01S
LONDON         CLEAR     52  50  93 CALM      30.03R FOG
SOMERSET       NOT AVBL
MIDDLESBORO    CLEAR     54  52  94 CALM      30.03R
MONTICELLO     SUNNY     51  50  96 W10       30.04S FOG
$$





USA.gov is the U.S. government's official web portal to all federal, state and local government web resources and services.